Location: *
(82.7120°N, 165.8460°E)
Time: 13:36:34
(UTC+00:00)

Daily predictions for brighter satellites

Satellite Brightness Start Highest point End
(mag) Time Altitude Azimuth Time Altitude Azimuth Time Altitude Azimuth
Meteor 2-10 3.8 12:00:40 10° WSW 12:05:43 75° S 12:10:52 10° E
Meteor 2-1 Rocket 4.1 12:00:15 10° SW 12:05:50 71° SSE 12:11:31 10° ENE
Cosmos 1689 Rocket 1.9 12:05:49 40° ESE 12:06:47 81° SSW 12:09:46 10° WNW
Cosmos 1743 2.8 12:02:57 10° NW 12:06:50 60° SW 12:08:05 38° SSE
SL-16 R/B 2.6 12:02:56 22° SE 12:07:03 63° SW 12:13:19 10° WNW
Cosmos 2369 Rocket 3.4 12:07:26 21° SE 12:07:26 21° SE 12:11:17 10° E
Iridium 2 3.8 12:05:09 10° NW 12:08:59 72° NE 12:11:19 23° ESE
Meteor 1-11 Rocket 4.1 12:04:00 10° NW 12:09:20 49° WSW 12:12:02 27° S
Terra 3.4 12:07:53 13° SW 12:11:22 28° W 12:15:29 10° NNW
Cosmos 1869 3.5 12:13:51 36° S 12:15:11 54° SE 12:19:07 10° NE
S3M 4.1 12:09:01 10° NW 12:15:17 70° SW 12:19:12 25° SSE
Cosmos 1763 Rocket 4.3 12:15:03 29° SSE 12:15:46 30° SSE 12:20:17 10° E
Helios 1A 4.2 12:14:12 22° SW 12:16:03 31° W 12:19:51 10° NNW
DMSP B5D1-3 4.4 12:11:10 10° ENE 12:16:18 77° SSE 12:21:28 10° WSW
CZ-2C R/B 3.5 12:13:00 10° ENE 12:17:27 71° SSE 12:21:58 10° WSW
Cosmos 2228 Rocket 3.7 12:16:38 31° SSE 12:18:09 42° ESE 12:22:21 10° NE
Resurs 1-4 Rocket 4.0 12:14:57 10° N 12:19:14 24° ENE 12:23:30 10° ESE
Cosmos 1842 Rocket 3.5 12:19:27 23° SW 12:22:11 69° SE 12:26:41 10° ENE
Meteor 2-9 Rocket 4.1 12:17:00 10° WNW 12:22:16 62° SW 12:25:16 26° SSE
Meteor 2-15 4.4 12:16:54 10° WNW 12:23:01 78° SW 12:28:17 14° SE
CZ-4C R/B 3.9 12:21:41 33° S 12:23:14 50° WSW 12:27:33 10° NW
Cosmos 883 Rocket 4.4 12:17:37 10° NW 12:23:45 73° SW 12:27:48 23° SSE
Helios 1B rocket 3.6 12:20:51 10° NNE 12:24:32 30° E 12:25:58 24° SE
Cosmos 1726 Rocket 3.5 12:20:13 10° W 12:24:37 88° S 12:28:59 10° E
Cosmos 1339 Rocket 4.5 12:18:27 10° WSW 12:24:40 90° NNW 12:30:59 10° ENE
Meteor 1-12 Rocket 4.3 12:19:13 10° WNW 12:24:56 66° SW 12:28:52 21° SE
CRYOSAT 2 4.5 12:22:38 24° SE 12:25:37 75° ENE 12:30:33 10° NNW
Cosmos 540 Rocket 4.3 12:25:19 28° SSE 12:25:54 28° SE 12:30:17 10° E
CZ-4C R/B 3.0 12:25:39 38° SSE 12:26:50 67° SW 12:30:27 10° WNW
UNK 3.8 12:24:43 30° SSE 12:26:51 60° SW 12:31:25 10° NW
Cosmos 2228 2.9 12:22:53 10° W 12:27:16 88° S 12:31:36 10° E
Cosmos 1844 Rocket 3.7 12:23:57 10° WSW 12:28:08 25° SSW 12:28:08 25° SSW
Cosmos 1933 4.0 12:27:39 33° SSE 12:28:52 43° ESE 12:32:48 10° NE
Cosmos 1812 4.3 12:27:28 20° ESE 12:28:56 26° E 12:32:10 10° NNE
Intercosmos 25 3.1 12:25:42 10° WNW 12:29:00 84° SSW 12:33:18 10° ESE
Aureole 3 2.6 12:26:47 10° WNW 12:30:09 77° SSW 12:31:11 38° SE
Cosmos 1151 Rocket 3.3 12:29:32 34° S 12:31:02 50° ESE 12:35:15 10° NE
USA 116 3.0 12:27:57 10° E 12:31:12 80° S 12:34:20 10° W
Cosmos 1300 2.6 12:27:22 10° WSW 12:31:14 83° SSE 12:35:05 10° ENE
ALOS 2 3.6 12:29:30 24° SW 12:31:22 34° W 12:35:26 10° NNW
Cosmos 371 Rocket 4.3 12:29:51 10° W 12:33:51 27° SSW 12:34:01 26° SSW
COSMO-SKYMED 1 2.5 12:30:40 10° E 12:35:04 84° S 12:39:28 10° W
Cosmos 1536 3.4 12:31:17 10° NW 12:35:07 43° WSW 12:36:19 33° SSW
Cosmos 1980 Rocket 4.4 12:33:34 10° ESE 12:35:26 12° E 12:37:17 10° ENE
Cosmos 1782 Rocket 3.8 12:31:18 10° NW 12:35:39 53° WSW 12:37:21 33° S
Cosmos 2151 Rocket 3.6 12:31:56 10° NW 12:36:25 64° SW 12:38:32 30° SSE
Cosmos 1356 Rocket 3.8 12:35:28 36° SSE 12:36:32 45° SE 12:40:27 10° NE
Meteor 2-15 Rocket 4.4 12:30:36 10° WNW 12:36:44 78° SW 12:42:27 12° SE
Cosmos 921 Rocket 3.6 12:32:43 10° WSW 12:36:44 34° S 12:37:02 34° S
Cosmos 1328 Rocket 3.8 12:35:20 33° S 12:37:01 53° ESE 12:41:22 10° NE
H-2A R/B 2.3 12:35:40 30° SSE 12:37:44 58° SW 12:42:14 10° NW
Cosmos 1455 Rocket 3.0 12:34:13 10° WNW 12:38:40 80° SSW 12:42:43 12° ESE
SAR-Lupe-4 3.7 12:40:13 41° S 12:41:07 54° SW 12:44:40 10° WNW
Cosmos 1346 Rocket 3.9 12:37:33 10° NW 12:41:11 32° WSW 12:42:19 27° SW
Cosmos 2058 Rocket 3.0 12:37:32 10° W 12:41:57 88° S 12:46:22 10° E
Cosmos 1544 Rocket 3.4 12:37:50 10° WNW 12:42:13 81° SSW 12:46:35 10° ESE
Meteor 1-16 Rocket 4.0 12:37:19 10° W 12:42:43 77° S 12:48:02 10° E
Cosmos 1943 Rocket 3.3 12:42:51 24° SSE 12:42:51 24° SSE 12:47:12 10° ESE
Cosmos 2315 Rocket 4.0 12:36:51 10° NW 12:43:05 72° SW 12:47:25 21° SSE
Cosmos 2221 2.4 12:41:47 27° SW 12:44:03 70° SE 12:48:21 10° ENE
Cosmos 1666 3.2 12:41:16 10° NW 12:44:56 44° WSW 12:45:55 36° SSW
Meteor 2-2 Rocket 4.4 12:41:01 22° SSW 12:45:00 64° SE 12:50:52 10° ENE
CZ-2C R/B 2.7 12:40:20 10° NE 12:45:59 68° SE 12:50:01 20° SW
Cosmos 1606 3.3 12:46:08 34° SSE 12:47:09 42° ESE 12:50:48 10° NE
Cosmos 1727 Rocket 4.0 12:40:58 10° WSW 12:47:13 89° N 12:53:28 10° ENE
ADEOS II 4.2 12:43:50 10° N 12:47:54 22° NE 12:51:58 10° ESE
Nadezhda 3 Rocket 4.1 12:41:44 10° W 12:48:10 89° NNE 12:54:35 10° E
Cosmos 1975 3.0 12:44:22 10° NW 12:48:24 55° SW 12:49:47 36° S
Cosmos 1953 2.3 12:45:14 10° W 12:49:20 87° S 12:53:26 10° ESE
Meteor 1-27 4.2 12:45:56 21° SW 12:49:43 65° SE 12:55:19 10° ENE
MOS 1 Rocket 3.2 12:45:32 10° NE 12:50:09 64° SE 12:52:14 30° SSW
SAR-Lupe-2 3.4 12:46:53 10° ENE 12:50:31 74° SSE 12:53:20 16° WSW
COBE Rocket 4.0 12:46:22 10° E 12:51:35 88° N 12:56:50 10° W
Cosmos 1766 3.1 12:48:02 10° WNW 12:51:57 78° SSW 12:55:05 16° ESE
Meteor 2-8 Rocket 4.5 12:46:01 10° NW 12:52:10 69° SW 12:56:21 21° SSE
Cosmos 2278 Rocket 3.7 12:47:48 10° WSW 12:57:06 10° SE 12:49:47 18° SW
Cosmos 1356 3.3 12:50:23 10° W 12:53:50 67° S 12:57:18 10° E
DMSP B5D2-2 4.0 12:48:48 10° ENE 12:54:07 71° SSE 12:58:20 16° SW
Meteor 1-28 Rocket 3.1 12:51:55 20° SE 12:54:31 77° SSW 12:58:21 10° WNW
CZ-2D R/B 3.8 12:51:54 10° NNE 12:56:16 26° ENE 13:00:37 10° SE
Nadezhda 1 Rocket 4.0 12:50:28 10° WNW 12:56:49 81° SW 13:03:16 10° SE
Cosmos 1758 3.2 12:53:29 10° WNW 12:57:29 84° SSW 13:01:31 10° ESE
Cosmos-2242 2.9 12:53:12 10° WSW 12:57:35 83° SSE 13:01:55 10° ENE
Thor Agena Rocket 3.8 12:53:25 10° NE 12:58:38 55° SE 13:01:15 28° SSW
Cosmos 1441 Rocket 3.7 12:55:01 10° NW 12:58:40 43° SW 12:59:27 37° SSW
SKYMED 3 4.5 12:54:43 10° E 12:59:07 84° S 13:03:31 10° W
Cosmos 1805 3.1 12:56:04 10° WNW 12:59:59 76° SSW 13:03:04 16° SE
Cosmos 1447 Rocket 4.4 12:54:39 12° SW 13:00:22 82° SE 13:06:39 10° ENE
Meteor 1-22 Rocket 4.1 12:54:45 10° WNW 13:00:22 71° SSW 13:05:46 10° SE
Cosmos 1553 Rocket 4.1 12:55:02 10° NNW 13:01:03 58° WSW 13:04:23 27° S
SWARM C 4.5 12:57:48 10° NNW 13:01:11 74° WSW 13:02:01 47° S
SWARM A 4.2 12:57:54 10° NNW 13:01:17 72° W 13:02:07 47° S
Landsat 5 3.7 12:58:44 25° SSE 13:01:20 63° SW 13:05:48 10° NW
EO 1 Del DPAF 3.4 12:58:36 10° NE 13:02:22 55° SE 13:03:31 38° S
Cosmos 1733 Rocket 4.0 13:02:09 10° NNW 13:06:14 36° W 13:07:51 27° SW
Cosmos 2123 Rocket 4.0 13:00:05 10° WSW 13:06:24 87° SSE 13:12:40 10° ENE
Meteor 2-20 Rocket 4.4 13:02:29 20° SW 13:06:55 75° SE 13:13:04 10° NE
Cosmos 1908 3.1 13:03:05 10° W 13:07:01 87° S 13:10:55 10° E
Resurs 01 Rocket 4.3 13:06:04 10° W 13:08:48 16° NW 13:11:32 10° N
Cosmos 1782 3.5 13:07:37 31° SSE 13:08:57 41° ESE 13:12:47 10° NE
Cosmos 1733 3.1 13:05:11 10° WNW 13:09:06 78° SSW 13:13:00 10° ESE
ERS-2 3.1 13:08:41 30° SW 13:09:19 32° WSW 13:12:42 10° NW
Mayak -0.9 13:05:39 10° NE 13:09:46 51° ESE 13:11:17 34° S
ADEOS Rocket 3.6 13:04:58 10° ENE 13:12:47 80° SSE 13:20:36 10° WSW
Cosmos 2263 Rocket 3.6 13:09:22 10° W 13:13:16 20° SW 13:13:24 19° SW
Landsat 4 4.2 13:09:55 10° NE 13:13:35 46° SE 13:14:35 36° SSE
Cosmos 405 Rocket 3.0 13:12:12 10° WNW 13:16:10 51° SW 13:17:32 35° S
Okean 2 Rocket 3.3 13:12:37 10° NW 13:17:00 52° WSW 13:18:43 33° S
Cosmos 1544 3.3 13:14:14 10° NW 13:17:53 53° SW 13:18:51 40° S
Cosmos 1470 2.7 13:15:29 10° WNW 13:19:28 81° SSW 13:23:27 10° ESE
Cosmos 2181 Rocket 4.0 13:14:14 10° WNW 13:20:45 84° SSW 13:27:10 10° SE
SAR-Lupe-1 4.4 13:20:12 40° SSW 13:20:53 46° SW 13:24:23 10° NW
Cosmos 1606 Rocket 3.4 13:16:57 10° WNW 13:21:20 85° SSW 13:25:41 10° ESE
Cosmos 1400 Rocket 3.8 13:20:48 28° SSE 13:22:05 35° ESE 13:25:50 10° NE
Cosmos 1340 Rocket 2.7 13:20:19 29° SW 13:22:11 65° SSE 13:26:10 10° ENE
CZ-4B R/B 1.2 13:22:06 51° S 13:22:34 59° SW 13:25:40 10° WNW
Meteor 2-10 Rocket 3.4 13:18:54 17° WSW 13:22:53 70° SSE 13:27:54 10° ENE
SKYMED 2 3.5 13:18:51 10° E 13:23:14 83° S 13:27:38 10° W
MOZ.5/SAFIR/RUBIN 5/SL-8 4.1 13:21:28 31° S 13:23:23 49° WSW 13:27:59 10° NW
Meteor 1-15 Rocket 4.3 13:18:02 10° WNW 13:23:51 64° SW 13:28:44 15° SSE
Sich 1 Rocket 4.1 13:20:25 10° NW 13:24:48 46° WSW 13:26:29 32° SSW
Cosmos 1300 Rocket 3.8 13:20:44 10° NW 13:25:04 53° WSW 13:26:49 32° S
Tsikada Rocket 4.0 13:21:14 24° SSW 13:25:17 74° SE 13:31:40 10° NE
PSLV R/B 3.8 13:21:20 10° SE 13:25:25 70° SSW 13:29:33 10° WNW
Iridium 4 Rocket 3.9 13:22:55 22° SSE 13:25:55 57° E 13:31:07 10° N
Cosmos 1908 Rocket 4.3 13:22:06 10° NNW 13:26:12 39° WSW 13:27:39 30° SW
IRIDIUM 104 4.5 13:23:52 27° S 13:26:42 69° E 13:31:55 10° NNE
MTI 3.6 13:24:05 10° ENE 13:27:13 69° SSE 13:27:55 48° SSW
Meteor 2-20 4.4 13:23:21 16° SW 13:28:23 80° SSE 13:34:33 10° ENE
Cosmos 1184 Rocket 2.9 13:25:08 10° WNW 13:28:23 52° SW 13:28:48 47° S
Cosmos 1500 4.3 13:25:31 10° NNW 13:28:55 30° W 13:29:49 27° WSW
Okean 1 Rocket 3.2 13:26:14 10° NW 13:30:41 60° SW 13:32:58 27° SSE
Cosmos 1340 4.1 13:29:25 10° NW 13:32:30 24° W 13:33:18 22° WSW
Cosmos 841 Rocket 4.2 13:32:32 29° SSW 13:33:48 32° SSE 13:38:29 10° ESE
IRIDIUM 114 4.4 13:33:00 27° S 13:35:50 71° E 13:41:05 10° NNE
Cosmos 1726 1.9 13:32:38 10° W 13:36:20 85° S 13:40:01 10° ESE
Cosmos 1455 2.1 13:33:43 20° WSW 13:36:22 84° SSE 13:40:14 10° ENE
Cosmos 1689 Rocket 2.0 13:38:07 55° S 13:38:24 59° SW 13:41:23 10° WNW
Cosmos 2227 Rocket 4.2 13:36:42 10° WNW 13:38:57 12° W 13:40:33 11° WSW
Cosmos 1707 Rocket 4.1 13:37:15 29° SSE 13:39:01 47° ESE 13:43:13 10° NE
Cosmos 1515 Rocket 3.7 13:37:39 32° SSW 13:39:33 62° SE 13:43:59 10° NE
SL-24 DEB 4.4 13:36:38 19° SSE 13:40:04 80° ENE 13:44:52 10° NNW
Cosmos 1812 Rocket 3.5 13:36:00 10° W 13:40:31 88° S 13:45:03 10° E
ASTEX 1 4.3 13:35:45 10° E 13:40:32 52° N 13:45:20 10° WNW
Cosmos 1743 3.4 13:38:38 10° NW 13:42:18 39° WSW 13:43:09 34° SW
Cosmos 1315 Rocket 3.9 13:41:09 24° SSE 13:42:39 33° ESE 13:46:14 10° NE
SL-08 R/B 3.4 13:40:37 28° S 13:42:49 52° SW 13:47:23 10° NW
Cosmos 2297 Rocket 4.2 13:42:11 10° WNW 13:44:09 12° W 13:45:46 11° WSW
Iridium 2 3.6 13:40:35 10° NNW 13:44:26 78° WSW 13:46:12 30° SSE
IRIDIUM 103 4.4 13:42:08 27° S 13:45:00 73° ESE 13:50:14 10° NNE
Meteor 2-10 3.8 13:42:34 10° W 13:47:37 74° SSW 13:52:45 10° ESE
Meteor 2-1 Rocket 4.1 13:43:29 10° W 13:49:05 78° S 13:54:50 10° E
Cosmos 2369 Rocket 3.2 13:49:14 25° S 13:49:45 25° SSE 13:54:14 10° ESE
Terra 3.9 13:47:05 10° WSW 13:50:35 20° NW 13:54:05 10° N
Cosmos 1869 3.2 13:49:24 30° SW 13:51:18 75° SSE 13:55:20 10° ENE
SL-16 R/B 2.9 13:48:02 24° S 13:51:35 48° WSW 13:57:41 10° NW
Meteor 1-29 3.9 13:49:36 10° NE 13:52:54 38° ESE 13:53:57 30° SSE
Cosmos 2242 Rocket 4.4 13:52:14 24° SSE 13:54:25 41° ESE 13:58:36 10° NE
CZ-2C R/B 3.5 13:50:26 10° E 13:54:54 79° S 13:59:26 10° W
DMSP B5D1-3 4.4 13:50:40 10° ESE 13:55:49 78° S 14:00:59 10° W
Cosmos 2228 Rocket 3.2 13:54:08 32° SSW 13:56:02 62° SE 14:00:25 10° NE
Cosmos 1763 Rocket 4.2 13:55:04 28° SSW 13:56:38 33° S 14:01:16 10° ESE
CZ-4C R/B 4.5 13:57:24 28° SW 13:58:42 34° W 14:02:45 10° NNW
CZ-4C R/B 3.4 13:59:22 40° SSW 14:00:01 45° WSW 14:03:31 10° NW
Cosmos 1842 Rocket 3.5 13:56:36 17° WSW 14:00:05 85° SSE 14:04:37 10° ENE
S3M 4.3 13:54:15 10° NNW 14:00:20 52° W 14:03:53 25° SSW
Resurs 1-4 Rocket 3.5 13:55:45 10° NNE 14:00:33 33° E 14:05:10 11° SSE
Helios 1B rocket 3.0 13:56:37 10° NE 14:00:37 45° ESE 14:02:17 29° S
Cosmos 1726 Rocket 3.4 13:58:08 10° WNW 14:02:31 82° SSW 14:06:53 10° ESE
IRIDIUM 106 4.4 14:00:24 27° S 14:03:18 78° ESE 14:08:33 10° NNE
Cosmos 1812 3.6 14:02:34 27° SSE 14:04:08 40° ESE 14:07:46 10° NE
CRYOSAT 2 4.3 14:01:52 27° S 14:04:35 77° W 14:09:32 10° N
Meteor 2-9 Rocket 4.5 13:59:33 10° NW 14:04:37 45° WSW 14:07:06 27° SSW
UNK 4.2 14:03:04 30° SSW 14:04:45 42° WSW 14:09:09 10° NW
Cosmos 2228 2.9 14:00:33 10° WNW 14:04:54 81° SSW 14:09:14 10° ESE
Iridium 96 4.2 14:02:25 10° NW 14:04:54 55° NE 14:06:04 25° ESE
Cosmos 1933 3.5 14:03:29 34° SSW 14:05:08 63° SE 14:09:14 10° NE
Cosmos 540 Rocket 4.2 14:05:08 28° SSW 14:06:30 32° S 14:11:06 10° ESE
CENTAUR R/B 4.4 14:08:36 16° SSE 14:08:36 16° SSE 14:11:15 10° SSE
Cosmos 1300 2.6 14:03:07 10° W 14:06:59 87° S 14:10:50 10° E
USA 116 3.0 14:04:00 10° ESE 14:07:17 76° SSW 14:10:25 10° WNW
Meteor 2-15 4.5 14:01:40 10° NW 14:07:40 61° WSW 14:12:17 18° SSE
Cosmos 1151 Rocket 3.0 14:06:23 31° SW 14:08:23 71° SE 14:12:44 10° ENE
ALOS 2 4.2 14:06:53 18° WSW 14:08:49 23° WNW 14:12:24 10° NNW
Cosmos 1339 Rocket 4.5 14:04:01 10° WNW 14:10:15 90° N 14:16:35 10° ESE
Cosmos 1844 Rocket 4.0 14:06:47 10° W 14:09:46 20° WSW 14:09:46 20° WSW
Cosmos 1536 4.0 14:07:30 10° NNW 14:10:58 28° W 14:12:01 25° WSW
COSMO-SKYMED 1 2.5 14:07:05 10° ESE 14:11:28 78° SSW 14:15:52 10° WNW
Nadezhda 4 Rocket 4.1 14:07:58 25° SSW 14:11:43 66° ESE 14:17:57 10° NE
Aureole 3 2.8 14:08:43 10° NW 14:11:55 51° SW 14:12:17 48° SSW
Cosmos 1782 Rocket 4.4 14:08:59 10° NNW 14:13:04 36° W 14:14:30 28° SW
Cosmos 1356 Rocket 3.4 14:11:37 33° SW 14:13:17 62° SSE 14:17:20 10° ENE
Cosmos 2151 Rocket 4.0 14:09:55 10° NW 14:14:13 44° WSW 14:15:54 30° SSW
Cosmos 921 Rocket 3.9 14:10:26 10° W 14:13:46 29° SW 14:13:46 29° SW
H-2A R/B 2.7 14:12:47 30° SSW 14:14:22 41° WSW 14:18:41 10° NW
Cosmos 1328 Rocket 3.6 14:12:23 29° SW 14:14:37 73° SE 14:19:05 10° ENE
SAR-Lupe-4 4.2 14:14:33 34° SW 14:14:59 35° WSW 14:18:22 10° NW
Cosmos 1455 Rocket 3.0 14:12:04 10° NW 14:16:26 61° SW 14:19:47 16° SSE
Cosmos 1346 Rocket 4.4 14:13:38 10° NNW 14:16:45 21° W 14:17:49 19° WSW
Cosmos 1980 Rocket 4.2 14:14:13 11° SSE 14:17:25 17° ESE 14:20:56 10° E
Cosmos 1544 Rocket 3.5 14:15:41 10° NW 14:20:00 62° SW 14:23:44 14° SSE
Cosmos 1666 3.8 14:16:41 10° NNW 14:20:00 28° W 14:20:47 26° WSW
Cosmos 2058 Rocket 2.9 14:15:38 10° WNW 14:20:01 81° SSW 14:24:28 10° ESE
Meteor 2-15 Rocket 4.5 14:15:24 10° NW 14:21:25 61° WSW 14:26:28 15° SSE
Cosmos 2221 2.4 14:18:38 20° WSW 14:21:38 85° SSE 14:25:58 10° ENE
CZ-4 R/B 4.4 14:17:04 10° NE 14:21:46 48° ESE 14:24:14 25° S
Cosmos 1606 2.8 14:21:09 35° SSW 14:22:36 63° SE 14:26:26 10° NE
Cosmos 1092 Rocket 4.2 14:18:52 23° S 14:22:50 64° ESE 14:29:07 10° NE
SAR-Lupe-2 3.4 14:20:27 10° E 14:24:04 78° S 14:27:38 10° W
Cosmos 1975 3.6 14:20:41 10° NW 14:24:29 36° W 14:25:33 31° SW
Cosmos 1943 Rocket 3.1 14:24:23 25° S 14:25:12 26° S 14:29:47 10° ESE
Meteor 1-16 Rocket 4.0 14:20:11 10° WNW 14:25:33 71° SSW 14:30:51 10° SE
ARIANE 5 R/B 4.2 14:21:18 10° NNE 14:25:38 28° E 14:29:56 10° SE
Cosmos 1953 2.2 14:21:42 10° WNW 14:25:47 74° SSW 14:29:51 10° SE
CZ-2C R/B 2.7 14:21:01 10° ENE 14:26:42 80° SSE 14:31:31 15° WSW
Cosmos 1766 3.3 14:24:06 10° NW 14:27:56 57° SW 14:30:25 21° SSE
USA 81 4.4 14:24:48 22° S 14:28:11 62° ESE 14:33:26 10° NNE
Cosmos 1356 3.4 14:24:46 10° WNW 14:28:11 58° SSW 14:31:38 10° SE
Aureole 2 Rocket 4.3 14:29:00 16° SE 14:29:00 16° SE 14:30:28 10° ESE
Cosmos 2315 Rocket 4.2 14:22:17 10° NNW 14:28:21 53° WSW 14:32:15 23° S
Meteor 2-2 Rocket 4.3 14:23:52 17° WSW 14:28:39 76° SSE 14:34:34 10° ENE
MOS 1 Rocket 3.1 14:24:05 10° ENE 14:28:46 82° SSE 14:31:32 23° WSW
Meteor 1-28 Rocket 3.3 14:26:54 25° SSE 14:28:54 55° SW 14:32:40 10° NW
ADEOS II 3.7 14:24:32 10° NNE 14:29:11 30° E 14:33:50 10° SE
Intercosmos 25 3.2 14:26:02 10° NW 14:29:21 61° SW 14:33:46 10° SSE
COBE Rocket 4.0 14:25:01 10° ESE 14:30:14 84° SSW 14:35:29 10° WNW
Meteor 1-27 4.2 14:28:15 16° WSW 14:32:51 77° SSE 14:38:31 10° E
Cosmos 1727 Rocket 4.0 14:26:41 10° WNW 14:32:54 90° NNE 14:39:10 10° ESE
Nadezhda 3 Rocket 4.0 14:27:22 10° WNW 14:33:47 83° SSW 14:40:12 10° SE
Cosmos 1758 3.2 14:29:58 10° WNW 14:33:57 67° SW 14:37:57 10° SE
Cosmos 1441 Rocket 4.2 14:30:44 10° NW 14:34:03 28° WSW 14:34:31 28° WSW
DMSP B5D2-2 4.0 14:28:51 10° E 14:34:11 80° S 14:39:13 12° W
PSLV R/B 4.4 14:30:24 10° NE 14:34:58 46° ESE 14:37:37 22° S
Cosmos 2278 Rocket 4.0 14:30:44 10° W 14:39:08 11° SSE 14:39:30 10° SSE
Cosmos-2242 2.9 14:30:52 10° W 14:35:15 88° S 14:39:35 10° E
SKYMED 3 4.5 14:31:09 10° ESE 14:35:32 75° SSW 14:39:56 10° WNW
Cosmos 1805 3.3 14:32:01 10° NW 14:35:52 55° SW 14:38:18 21° SSE
EO 1 Del DPAF 3.1 14:32:58 10° ENE 14:36:47 73° SSE 14:38:35 30° WSW
Landsat 5 4.0 14:35:20 27° S 14:37:25 45° WSW 14:41:45 10° NW
CZ-2D R/B 3.3 14:32:50 10° NNE 14:37:41 36° E 14:42:13 12° SSE
Thor Agena Rocket 3.6 14:33:12 10° ENE 14:38:31 69° SSE 14:41:49 23° SW
Okean 1-7 3.9 14:37:31 21° SSE 14:39:59 42° ESE 14:44:02 10° NE
Cosmos 2346 Rocket 4.5 14:36:39 19° WSW 14:41:21 86° SSE 14:47:40 10° ENE
Nadezhda 1 Rocket 4.1 14:35:47 10° NW 14:42:02 63° WSW 14:48:22 10° SSE
Cosmos 1908 3.1 14:39:01 10° WNW 14:42:56 79° SSW 14:46:49 10° ESE
Meteor 1-22 Rocket 4.2 14:37:51 10° NW 14:43:21 56° SW 14:48:37 10° SSE
ERS-2 3.7 14:43:18 20° W 14:43:51 21° W 14:46:44 10° NW
Cosmos 1733 3.2 14:40:52 10° NW 14:44:42 57° SW 14:48:08 12° SSE
Cosmos 1782 3.0 14:43:14 31° SSW 14:44:58 62° SE 14:49:00 10° NE
Cosmos 2026 Rocket 4.2 14:40:57 22° SSW 14:45:08 64° ESE 14:51:19 10° NE
Cosmos 1703 Rocket 4.3 14:42:48 22° S 14:45:16 45° ESE 14:49:26 10° NE
Mayak -1.2 14:41:35 10° ENE 14:45:47 72° SE 14:47:51 29° SW
Cosmos 1447 Rocket 4.5 14:39:41 10° W 14:45:55 89° N 14:52:13 10° E
Resurs 01 Rocket 4.4 14:45:05 10° NW 14:47:08 13° NNW 14:49:11 10° N
Landsat 4 3.7 14:44:14 10° ENE 14:48:02 65° SSE 14:49:34 33° SW
CZ-4B R/B 4.5 14:43:03 10° NE 14:48:04 42° ESE 14:51:58 16° S
Cosmos 405 Rocket 3.5 14:48:01 10° NW 14:51:44 35° WSW 14:52:40 31° SW
Meteor 2-20 Rocket 4.4 14:46:36 15° WSW 14:51:53 87° SSE 14:58:03 10° ENE
Cosmos 1862 Rocket 3.9 14:49:48 26° S 14:52:02 55° ESE 14:56:19 10° NE
Cosmos 2123 Rocket 4.0 14:45:43 10° W 14:52:02 88° N 14:58:18 10° E
Cosmos 1544 3.8 14:49:08 10° NW 14:52:32 34° WSW 14:53:10 32° SW
Okean 2 Rocket 3.9 14:50:30 10° NNW 14:54:34 35° W 14:56:03 27° SW
Cosmos 2263 Rocket 3.9 14:52:34 10° WNW 14:55:04 14° WSW 14:55:04 14° WSW
CZ-4B R/B 1.8 14:55:23 37° WSW 14:55:23 37° WSW 14:58:19 10° NW
Cosmos 1470 2.7 14:51:33 10° NW 14:55:30 62° SW 14:59:25 10° SE
Cosmos 1400 Rocket 3.2 14:56:25 29° SSW 14:58:09 52° SE 15:02:08 10° ENE
Cosmos 1340 Rocket 2.7 14:55:54 20° W 14:58:34 72° S 15:02:34 10° E
ADEOS Rocket 3.6 14:50:55 10° E 14:58:41 82° S 15:06:31 10° W
Cosmos 1606 Rocket 3.4 14:54:50 10° WNW 14:59:12 70° SW 15:03:31 10° SE
MTI 3.6 14:56:06 10° E 14:59:15 85° S 15:00:39 31° WSW
SKYMED 2 3.5 14:55:19 10° SE 14:59:41 71° SW 15:04:04 10° WNW
PSLV R/B 4.0 14:57:12 10° SSE 15:01:13 52° SW 15:05:15 10° NW
Cosmos 1184 Rocket 3.5 14:58:51 10° NW 15:01:48 34° WSW 15:01:48 34° WSW
Cosmos 1300 Rocket 4.3 14:58:18 10° NNW 15:02:22 35° W 15:03:51 28° SW
JB-3 4.4 14:59:12 10° ENE 15:03:20 74° SE 15:05:25 29° SW
Meteor 2-10 Rocket 3.4 15:00:01 11° W 15:04:54 76° S 15:09:55 10° E
Iridium 4 Rocket 3.5 15:02:42 23° SSW 15:05:46 83° ESE 15:11:07 10° NNE
Cosmos 2181 Rocket 4.0 14:59:51 10° NW 15:06:15 68° WSW 15:12:36 10° SSE
IRIDIUM 104 4.3 15:04:21 25° SW 15:07:29 85° NW 15:12:46 10° NNE
Okean 1 Rocket 3.6 15:03:59 10° NW 15:08:13 41° WSW 15:10:08 27° SSW
Cosmos 1697 Rocket 4.3 15:06:25 14° S 15:09:22 21° SE 15:13:30 10° E
Cosmos 1689 Rocket 2.7 15:10:25 36° WSW 15:10:25 36° WSW 15:13:03 10° NW
Tsikada Rocket 4.0 15:06:04 18° WSW 15:10:54 88° SSE 15:17:20 10° ENE
Meteor 1-27 Rocket 4.1 15:07:51 22° SSW 15:11:22 56° SE 15:16:46 10° NE
Cosmos 1726 1.9 15:07:54 10° WNW 15:11:34 69° SW 15:15:14 10° SE
Cosmos 1455 2.1 15:08:39 13° W 15:12:05 87° S 15:15:56 10° E
Meteor 2-20 4.4 15:07:26 11° W 15:13:23 89° S 15:19:33 10° E
GP-B 4.4 15:10:09 10° ESE 15:14:23 44° NE 15:18:38 10° NNW
Cosmos 841 Rocket 4.2 15:12:37 24° SW 15:14:46 33° S 15:19:28 10° SE
SL-16 R/B 4.4 15:11:35 10° SSE 15:15:02 17° ESE 15:18:28 10° E
Cosmos 1707 Rocket 3.6 15:14:23 28° SSW 15:16:38 68° SE 15:20:59 10° NE
IRIDIUM 114 4.3 15:13:28 25° SW 15:16:40 83° NW 15:21:56 10° NE
Cosmos 1515 Rocket 3.5 15:14:47 25° WSW 15:17:21 81° SSE 15:21:50 10° ENE
Cosmos 1743 4.0 15:14:12 10° NNW 15:17:27 25° W 15:18:14 24° WSW
SL-24 DEB 4.3 15:15:08 21° S 15:18:22 70° W 15:23:09 10° N
Cosmos 1812 Rocket 3.5 15:13:58 10° WNW 15:18:29 81° SSW 15:23:00 10° ESE
Cosmos 1315 Rocket 3.3 15:16:51 26° SSW 15:18:46 49° SE 15:22:36 10° ENE
ASTEX 1 4.0 15:14:24 10° ESE 15:19:14 60° NNE 15:24:07 10° NW
Iridium 2 4.0 15:15:52 10° NNW 15:19:34 48° W 15:21:06 30° SSW
SL-08 R/B 3.9 15:19:36 26° SW 15:21:28 36° W 15:25:47 10° NNW
Meteor 2-6 Rocket 4.5 15:17:57 23° SSW 15:21:37 63° SE 15:27:12 10° ENE
Cosmos 2221 Rocket 4.4 15:22:23 17° S 15:25:42 47° ESE 15:30:06 10° NE
IRIDIUM 103 4.3 15:22:37 24° SW 15:25:51 81° NW 15:31:08 10° NE
Meteor 1-29 3.2 15:22:40 10° NE 15:26:08 58° SE 15:27:37 30° SSW
Cosmos 1869 3.3 15:24:57 21° W 15:27:37 87° S 15:31:39 10° E
Meteor 2-10 3.9 15:24:25 10° WNW 15:29:25 62° SW 15:34:30 10° SE
Terra 4.2 15:27:18 10° WNW 15:30:08 15° NNW 15:32:57 10° N
Cosmos 2242 Rocket 3.9 15:29:43 24° SSW 15:32:16 60° SE 15:36:40 10° NE
CZ-2C R/B 3.6 15:27:53 10° ESE 15:32:20 74° SSW 15:36:51 10° WNW
Meteor 2-1 Rocket 4.2 15:26:46 10° WNW 15:32:23 74° SSW 15:38:07 10° ESE
Cosmos 2369 Rocket 3.2 15:31:01 23° SW 15:32:26 25° SSW 15:36:55 10° SE
Okean 1 4.1 15:30:32 19° S 15:33:10 46° ESE 15:37:06 10° NE
CZ-4C R/B 4.0 15:33:04 28° WSW 15:33:29 29° W 15:36:40 10° NW
Cosmos 2228 Rocket 3.0 15:31:37 25° WSW 15:34:10 81° SSE 15:38:38 10° ENE
DMSP B5D1-3 4.4 15:30:16 10° SE 15:35:23 68° SSW 15:40:32 10° WNW
Helios 1B rocket 2.6 15:32:17 10° ENE 15:36:24 64° SE 15:38:36 26° SW
SL-16 R/B 3.3 15:33:08 22° SW 15:36:30 35° W 15:42:14 10° NNW
Cosmos 1763 Rocket 4.2 15:35:05 21° WSW 15:37:31 31° SSW 15:42:04 10° SE
Iridium 96 3.3 15:35:12 10° NNW 15:37:43 76° WSW 15:38:24 40° S
Cosmos 1842 Rocket 3.6 15:33:46 11° W 15:38:05 87° S 15:42:36 10° E
Cosmos 1812 3.0 15:37:40 26° SSW 15:39:38 60° SE 15:43:28 10° NE
Cosmos 1726 Rocket 3.5 15:35:58 10° NW 15:40:18 63° SW 15:44:35 10° SSE
Resurs 1-4 Rocket 2.9 15:36:20 10° NE 15:41:29 47° ESE 15:46:14 12° S
Cosmos 1933 3.3 15:39:19 25° WSW 15:41:38 82° SSE 15:45:47 10° ENE
Cosmos 2228 3.0 15:38:06 10° NW 15:42:24 62° SW 15:46:39 10° SSE
Cosmos 1300 2.6 15:38:51 10° WNW 15:42:42 76° SSW 15:46:33 10° SE
USA 116 3.2 15:40:11 10° SE 15:43:26 56° SW 15:46:33 10° WNW
ATLAS 3B R/B 4.5 15:46:17 10° S 15:46:17 10° S 15:46:24 10° S
IRIDIUM 106 4.4 15:40:52 23° SW 15:44:13 77° NW 15:49:29 10° NE
Cosmos 2322 Rocket 4.3 15:41:48 10° SSE 15:45:24 18° ESE 15:49:00 10° E
Cosmos 1151 Rocket 3.0 15:43:13 22° WSW 15:45:58 86° SSE 15:50:20 10° ENE
Cosmos 540 Rocket 4.2 15:44:58 23° WSW 15:47:12 32° SSW 15:51:46 10° SE
Meteor 1-10 Rocket 4.4 15:43:25 22° SW 15:47:15 66° SE 15:52:53 10° ENE
COSMO-SKYMED 1 2.5 15:43:40 10° SE 15:48:00 61° SW 15:52:21 10° NW
Cosmos 2292 Rocket 4.3 15:45:37 16° S 15:48:31 49° ESE 15:53:18 10° NE
Cosmos 1356 Rocket 3.3 15:47:47 23° WSW 15:50:12 72° S 15:54:19 10° E
H-2A R/B 3.2 15:49:53 23° WSW 15:51:20 28° W 15:55:16 10° NNW
NPP 4.4 15:46:21 10° NE 15:51:36 48° ESE 15:56:34 11° S
Cosmos 921 Rocket 4.4 15:48:13 10° WNW 15:50:31 20° W 15:50:31 20° W
Cosmos 1655 Rocket 4.3 15:47:17 17° SSW 15:52:15 69° SE 15:58:39 10° NE
Cosmos 1328 Rocket 3.6 15:49:26 21° WSW 15:52:25 87° S 15:56:55 10° E
Cosmos 1844 Rocket 4.4 15:49:52 10° WNW 15:51:24 14° W 15:51:24 14° W
Aureole 3 3.5 15:50:32 10° NW 15:53:25 30° WSW 15:53:25 30° WSW
Cosmos 1455 Rocket 3.5 15:49:45 10° NW 15:53:54 41° WSW 15:56:51 18° SSW
CENTAUR R/B 4.4 15:55:49 15° SSW 15:55:49 15° SSW 15:58:54 10° S
Cosmos 1666 4.4 15:52:01 10° NNW 15:54:44 19° WNW 15:55:40 17° W
Cosmos 1339 Rocket 4.4 15:49:31 10° NW 15:55:44 79° SW 16:02:03 10° SE
Cosmos 2360 Rocket 4.5 15:52:35 10° SSE 15:55:58 16° ESE 15:59:20 10° ENE
Nadezhda 4 Rocket 4.0 15:52:33 21° SW 15:56:56 83° SE 16:03:16 10° ENE
Meteor 1-26 Rocket 4.4 15:53:15 21° WSW 15:57:23 74° SSE 16:03:23 10° ENE
Cosmos 1544 Rocket 3.9 15:53:23 10° NW 15:57:31 42° WSW 16:00:48 15° S
SAR-Lupe-2 3.5 15:54:03 10° SE 15:57:39 67° SSW 16:01:15 10° WNW
Cosmos 2058 Rocket 3.0 15:53:38 10° NW 15:57:59 63° SW 16:02:21 10° SSE
Cosmos 1606 2.6 15:56:11 26° WSW 15:58:18 82° SSE 16:02:10 10° ENE
Cosmos 2221 2.4 15:55:29 13° W 15:59:18 87° SSW 16:03:39 10° ESE
Cosmos 2266 Rocket 4.3 15:54:13 15° SSW 15:59:20 66° ESE 16:05:34 10° NE
Cosmos 1980 Rocket 3.9 15:55:59 12° S 15:59:45 22° SE 16:04:02 10° E
Cosmos 1975 4.2 15:56:54 10° NNW 16:00:13 24° WNW 16:01:17 21° W
CZ-4 R/B 4.0 15:55:34 10° ENE 16:00:24 65° SE 16:03:25 22° SW
Aureole 2 Rocket 4.0 16:01:30 18° S 16:01:31 18° S 16:03:54 10° SE
Cosmos 1953 2.4 15:58:03 10° NW 16:02:03 52° WSW 16:06:00 10° SSE
Cosmos 1356 3.7 15:59:07 10° WNW 16:02:25 42° SW 16:05:43 10° SSE
Meteor 1-28 Rocket 3.8 16:01:53 24° SSW 16:03:32 36° WSW 16:07:05 10° NW
Cosmos 1766 3.8 16:00:04 10° NW 16:03:41 37° WSW 16:05:45 21° SSW
ARIANE 5 R/B 3.7 16:01:11 10° NE 16:05:56 40° ESE 16:10:40 10° S
MOS 1 Rocket 3.2 16:02:32 10° E 16:07:15 89° S 16:10:49 16° W
CZ-2C R/B 2.7 16:01:38 10° E 16:07:19 81° S 16:12:58 10° W
Cosmos 1943 Rocket 3.3 16:05:54 21° SW 16:07:37 24° SSW 16:12:04 10° SSE
Cosmos 1092 Rocket 4.1 16:03:31 20° SW 16:08:05 81° SE 16:14:29 10° ENE
Meteor 1-16 Rocket 4.1 16:02:58 10° NW 16:08:12 56° SW 16:13:24 10° SSE
COBE Rocket 4.0 16:03:52 10° SSE 16:09:03 67° SW 16:14:15 10° NW
USA 81 4.1 16:05:29 20° SW 16:09:14 86° SE 16:14:35 10° NE
Cosmos 1674 Rocket 4.4 16:06:01 11° S 16:10:01 46° ESE 16:14:17 10° NE
ADEOS II 3.2 16:05:01 10° NE 16:10:04 43° ESE 16:15:07 10° S
Cosmos 1758 3.5 16:06:21 10° NW 16:10:11 45° WSW 16:14:01 10° S
EO 1 Del DPAF 3.1 16:07:15 10° E 16:11:05 81° S 16:13:37 20° W
Cosmos 1805 3.8 16:07:51 10° NW 16:11:28 36° WSW 16:13:32 21° SSW
PSLV R/B 4.0 16:07:33 10° NE 16:12:16 65° SE 16:15:23 20° SW
Meteor 2-2 Rocket 4.3 16:06:43 11° W 16:12:27 79° S 16:18:21 10° ESE
Cosmos-2242 2.9 16:08:31 10° WNW 16:12:53 78° SSW 16:17:12 10° ESE
DMSP B5D2-2 4.1 16:08:51 10° ESE 16:14:12 78° SSW 16:19:31 10° WNW
Meteor 1-27 4.2 16:10:34 10° W 16:16:05 77° SSW 16:21:46 10° ESE
MOS 1-B Rocket 4.4 16:10:53 10° NE 16:16:37 55° SE 16:21:32 13° SSW
Okean 1-7 3.3 16:14:23 20° SSW 16:17:15 62° SE 16:21:29 10° NE
Cosmos 2278 Rocket 4.1 16:21:09 11° SSW 16:21:09 11° SSW 16:21:25 10° SSW
Thor Agena Rocket 3.6 16:12:55 10° E 16:18:15 75° S 16:22:24 17° W
Cosmos 1727 Rocket 3.9 16:12:16 10° NW 16:18:29 79° SW 16:24:44 10° SE
Cosmos 1908 3.2 16:14:51 10° NW 16:18:42 58° SW 16:22:31 10° SSE
ERS-2 4.2 16:17:56 13° WNW 16:18:42 14° WNW 16:20:44 10° NNW
CZ-2D R/B 2.7 16:13:36 10° NE 16:18:43 52° ESE 16:23:32 12° SSW
Nadezhda 3 Rocket 4.0 16:12:51 10° NW 16:19:11 66° WSW 16:25:30 10° SSE
Cosmos 1733 3.7 16:16:26 10° NW 16:20:03 37° WSW 16:23:03 14° S
Cosmos 1782 2.8 16:18:51 24° WSW 16:21:15 81° SSE 16:25:19 10° ENE
Mayak -1.3 16:17:24 10° ENE 16:21:37 86° SSE 16:24:25 21° WSW
Landsat 4 3.7 16:18:28 10° E 16:22:16 77° S 16:24:33 23° WSW
Cosmos 1703 Rocket 3.8 16:19:58 20° SSW 16:22:52 65° SE 16:27:13 10° NE
Nimbus 7 Rocket 4.5 16:19:02 10° E 16:25:02 72° SSE 16:29:28 19° WSW
Resurs 01 Rocket 4.4 16:23:40 10° NNW 16:25:35 12° N 16:27:29 10° NNE
Nadezhda 1 Rocket 4.3 16:20:52 10° NNW 16:26:52 46° W 16:32:56 10° SSW
Cosmos 1544 4.5 16:23:58 10° NNW 16:26:53 22° W 16:27:29 21° W
Cosmos 405 Rocket 4.1 16:23:46 10° NW 16:27:00 23° W 16:27:48 22° WSW
CZ-4B R/B 4.0 16:22:21 10° NE 16:27:34 58° SE 16:31:53 15° SSW
CZ-4B R/B 2.5 16:28:40 22° W 16:28:40 22° W 16:31:02 10° NW
Intercosmos 25 3.9 16:26:12 10° NW 16:29:24 36° WSW 16:33:36 10° S
Cosmos 1862 Rocket 3.6 16:26:57 22° SW 16:29:47 75° SE 16:34:09 10° ENE
Cosmos 2026 Rocket 4.1 16:25:30 19° SW 16:30:19 81° SE 16:36:35 10° ENE
SME Rocket 4.2 16:25:34 10° NE 16:30:33 43° ESE 16:34:09 11° SSW
MTI 3.6 16:28:06 10° ESE 16:31:14 83° SSW 16:33:22 19° WNW
Cosmos 1470 3.1 16:27:30 10° NW 16:31:16 41° WSW 16:35:00 10° S
Okean 2 Rocket 4.4 16:28:13 10° NNW 16:31:48 24° WNW 16:33:24 19° W
IRS-1D 4.3 16:28:30 10° NE 16:33:40 50° ESE 16:38:45 10° SSW
Cosmos 1400 Rocket 2.9 16:32:02 23° WSW 16:34:27 67° SSE 16:38:31 10° ENE
Cosmos 1340 Rocket 2.8 16:31:29 13° WNW 16:34:57 65° SSW 16:38:56 10° ESE
Cosmos 1184 Rocket 4.2 16:32:32 10° NW 16:34:47 21° W 16:34:47 21° W
SKYMED 2 3.7 16:32:03 10° SSE 16:36:19 52° WSW 16:40:37 10° NW
Cosmos 1606 Rocket 3.7 16:32:36 10° NW 16:36:49 49° WSW 16:41:00 10° S
Meteor 2-20 Rocket 4.4 16:30:49 10° W 16:36:57 88° SSW 16:43:08 10° ESE
Cosmos 2123 Rocket 4.0 16:31:21 10° WNW 16:37:39 85° SSW 16:43:54 10° ESE
JB-3 4.4 16:34:20 10° ENE 16:38:28 88° SSE 16:41:18 20° WSW
Okean 3 4.0 16:37:48 14° SSW 16:41:22 57° SE 16:45:38 10° NE
IDEFIX/ARIANE 42P 4.0 16:36:58 10° NNE 16:41:55 38° E 16:46:50 10° SSE
Cosmos 1689 Rocket 3.5 16:42:43 22° W 16:42:43 22° W 16:44:45 10° NW
ADEOS Rocket 3.6 16:36:56 10° SE 16:44:39 75° SSW 16:52:29 10° WNW
Okean 1 Rocket 4.2 16:41:36 10° NNW 16:45:25 27° WNW 16:47:17 20° WSW
Iridium 4 Rocket 3.5 16:42:29 19° SW 16:45:59 72° NW 16:51:22 10° NE
Cosmos 1428 Rocket 4.5 16:41:21 18° SW 16:46:08 82° SE 16:52:16 10° ENE
Cosmos 1726 2.3 16:43:04 10° NW 16:46:36 46° WSW 16:50:09 10° SSE
Meteor 2-10 Rocket 3.4 16:41:47 10° WNW 16:46:53 69° SSW 16:51:53 10° SE
Cosmos 1455 2.1 16:43:54 10° WNW 16:47:45 75° SSW 16:51:36 10° SE
Cosmos 1000 Rocket 4.5 16:42:51 10° NW 16:49:10 80° SW 16:55:31 10° SE
CZ-2C R/B 4.2 16:46:18 10° NE 16:49:51 36° ESE 16:53:21 10° S
GP-B 3.6 16:47:00 10° SSE 16:51:25 64° ENE 16:55:50 10° N
Cosmos 2181 Rocket 4.2 16:45:13 10° NNW 16:51:25 50° W 16:57:31 10° S
Cosmos 1697 Rocket 4.1 16:48:09 13° SSW 16:51:53 25° SSE 16:56:23 10° ESE
Cosmos 1743 4.5 16:49:43 10° NNW 16:52:17 17° WNW 16:53:18 16° W
H-2A R/B 4.5 16:50:53 10° NE 16:54:22 28° E 16:57:57 10° SSE
Meteor 1-27 Rocket 3.8 16:50:17 18° SW 16:54:28 71° SSE 16:59:59 10° ENE
Cosmos 1707 Rocket 3.5 16:51:32 20° WSW 16:54:29 84° SSE 16:58:53 10° ENE
Cosmos 1315 Rocket 3.0 16:52:33 21° SW 16:55:07 65° SSE 16:59:03 10° ENE
Cosmos 1515 Rocket 3.6 16:51:55 18° W 16:55:18 88° S 16:59:47 10° E
Cosmos 841 Rocket 4.4 16:52:42 17° W 16:55:40 29° SW 17:00:10 10° SSE
Cosmos 2195 Rocket 4.5 16:51:05 18° WSW 16:55:52 85° SSE 17:02:02 10° ENE
Cosmos 1812 Rocket 3.6 16:51:51 10° NW 16:56:18 62° SW 17:00:45 10° SSE
Tsikada Rocket 4.1 16:50:54 13° W 16:56:43 88° N 17:03:09 10° E
SL-16 R/B 4.1 16:53:14 10° S 16:57:27 22° SE 17:01:41 10° E
ASTEX 1 3.5 16:53:13 10° SE 16:58:08 79° ENE 17:03:06 10° NNW
Meteor 2-20 4.4 16:52:17 10° WNW 16:58:25 85° SSW 17:04:36 10° ESE
Meteor 1-29 3.0 16:55:39 10° ENE 16:59:09 78° SSE 17:01:17 22° WSW
SL-08 R/B 4.4 16:58:35 19° WSW 17:00:28 25° WNW 17:04:19 10° NNW
Cosmos 2221 Rocket 3.9 16:59:51 15° SW 17:03:37 67° SE 17:08:11 10° NE
Cosmos 1869 3.3 17:00:30 14° WNW 17:03:58 84° SSW 17:07:59 10° ESE
Cosmos 1378 Rocket 4.2 16:59:47 10° SSW 17:04:07 54° ESE 17:08:24 10° NE
Meteor 2-6 Rocket 4.3 17:00:11 18° WSW 17:04:38 76° SSE 17:10:16 10° ENE
Okean 1 3.6 17:06:12 17° SW 17:09:19 68° SE 17:13:23 10° ENE
Terra 4.2 17:07:28 10° NW 17:09:53 14° N 17:12:17 10° NNE
CZ-2C R/B 3.7 17:05:30 10° SE 17:09:54 58° SW 17:14:21 10° NW
Iridium 96 4.1 17:07:54 10° NNW 17:10:13 35° W 17:10:45 30° WSW
Cosmos 2242 Rocket 3.6 17:07:13 19° WSW 17:10:24 80° SSE 17:14:52 10° ENE
Cosmos 1975 Rocket 4.0 17:06:40 10° S 17:10:57 48° ESE 17:15:13 10° NE
Meteor 2-10 4.2 17:06:09 10° NW 17:10:58 45° WSW 17:15:52 10° S
Helios 1B rocket 2.5 17:07:51 10° ENE 17:12:00 78° SSE 17:14:55 19° WSW
Cosmos 2228 Rocket 3.1 17:09:06 17° W 17:12:28 88° S 17:16:56 10° E
Cosmos 2369 Rocket 3.4 17:12:49 17° WSW 17:15:02 22° SW 17:19:12 10° S
Cosmos 1812 2.7 17:12:46 20° WSW 17:15:22 81° SSE 17:19:15 10° ENE
Meteor 2-1 Rocket 4.3 17:09:59 10° NW 17:15:31 61° SW 17:21:10 10° SSE
Cosmos 1842 Rocket 3.6 17:11:32 10° WNW 17:16:02 76° SSW 17:20:32 10° SE
Cosmos 1726 Rocket 3.8 17:13:39 10° NW 17:17:47 43° WSW 17:21:54 10° S
Cosmos 1300 2.8 17:14:29 10° NW 17:18:15 54° SW 17:22:00 10° SSE
Cosmos 1933 3.4 17:15:10 17° W 17:18:16 88° SSW 17:22:26 10° E
Cosmos 2228 3.4 17:15:32 10° NW 17:19:37 42° WSW 17:23:41 10° S
USA 116 3.7 17:16:42 10° S 17:19:47 36° WSW 17:22:45 10° NW
Cosmos 1515 4.1 17:17:52 13° SSW 17:21:12 61° SE 17:25:00 10° NE
SL-16 R/B 3.6 17:18:14 16° WSW 17:21:52 26° WNW 17:27:04 10° N
Resurs 1-4 Rocket 2.5 17:16:44 10° NE 17:22:04 63° SE 17:27:18 10° SW
Cosmos 1151 Rocket 3.0 17:20:04 15° W 17:23:38 87° S 17:28:01 10° ESE
COSMO-SKYMED 1 2.9 17:20:36 10° S 17:24:46 43° WSW 17:28:57 10° NW
CZ-2C R/B 4.1 17:20:08 10° NNE 17:24:59 39° E 17:29:52 10° SSE
Cosmos 1356 Rocket 3.4 17:23:55 16° W 17:27:09 69° SSW 17:31:16 10° ESE
Cosmos 540 Rocket 4.5 17:24:47 16° W 17:27:48 27° SW 17:32:06 10° SSE
Cosmos 2322 Rocket 4.0 17:23:35 10° SSW 17:27:51 23° SSE 17:32:07 10° E
Okean O Rocket 4.1 17:24:11 10° NNE 17:27:59 26° E 17:31:44 10° SE
H-2A R/B 3.7 17:27:00 16° W 17:28:39 20° WNW 17:31:58 10° NNW
Meteor 2-4 Rocket 4.2 17:23:30 10° SSW 17:29:06 62° SE 17:34:54 10° NE
CZ-2D R/B 4.3 17:26:00 10° NE 17:29:53 47° ESE 17:33:50 10° SSW
Cosmos 1328 Rocket 3.6 17:26:29 14° W 17:30:19 86° SSW 17:34:49 10° ESE
Meteor 1-10 Rocket 4.3 17:25:55 16° WSW 17:30:34 77° SSE 17:36:14 10° E
Cosmos 1455 Rocket 4.0 17:27:19 10° NNW 17:31:04 27° W 17:33:55 14° SW
SAR-Lupe-2 3.8 17:27:52 10° SSE 17:31:22 48° SW 17:34:53 10° NW
Cosmos 2292 Rocket 3.8 17:29:04 14° SW 17:32:25 73° SE 17:37:31 10° NE
NPP 4.0 17:27:10 10° ENE 17:32:34 64° SE 17:37:58 10° SW
Cosmos 1606 2.7 17:31:12 17° W 17:34:07 88° S 17:37:59 10° E
Aureole 3 4.3 17:32:19 10° NW 17:34:32 18° WNW 17:34:32 18° WNW
Cosmos 1544 Rocket 4.5 17:30:58 10° NNW 17:34:41 28° W 17:37:52 13° SW
Aureole 2 Rocket 4.1 17:34:00 16° SW 17:34:45 17° SSW 17:36:58 10° SSE
Cosmos 2058 Rocket 3.4 17:31:30 10° NW 17:35:40 43° WSW 17:39:50 10° S
Cosmos 1356 4.3 17:33:24 10° NW 17:36:23 27° WSW 17:39:23 10° SSW
Cosmos 2221 2.4 17:32:37 10° WNW 17:36:55 74° SSW 17:41:14 10° SE
Cosmos 1655 Rocket 4.1 17:32:14 14° WSW 17:37:54 85° SSE 17:44:22 10° ENE
Cosmos 1953 2.9 17:34:18 10° NNW 17:38:01 34° W 17:41:42 10° SSW
Cosmos 2360 Rocket 4.2 17:34:06 10° S 17:38:17 22° SE 17:42:28 10° E
Meteor 1-28 Rocket 4.4 17:36:52 18° WSW 17:38:29 23° W 17:41:36 10° NNW
CZ-4 R/B 3.9 17:33:57 10° E 17:38:49 77° SSE 17:42:36 16° WSW
Cosmos 1766 4.4 17:35:55 10° NNW 17:39:06 24° W 17:41:06 16° WSW
AQUA 4.2 17:34:51 10° NE 17:39:37 64° SE 17:44:23 10° SW
Cosmos 1025 Rocket 4.3 17:36:12 10° S 17:40:16 42° ESE 17:44:21 10° NE
Meteor 1-26 Rocket 4.4 17:35:37 15° W 17:40:40 79° S 17:46:42 10° E
Cosmos 1980 Rocket 3.7 17:37:47 10° SW 17:42:21 26° SSE 17:46:56 10° ESE
Nadezhda 4 Rocket 4.0 17:37:07 15° W 17:42:25 88° N 17:48:45 10° E
Cosmos 2266 Rocket 4.1 17:38:48 12° SW 17:44:33 83° SE 17:50:53 10° ENE
EO 1 Del DPAF 3.2 17:41:33 10° ESE 17:45:22 73° SSW 17:48:41 13° WNW
MOS 1 Rocket 3.2 17:41:00 10° ESE 17:45:43 82° SSW 17:50:07 11° WNW
ARIANE 5 R/B 3.1 17:40:54 10° NE 17:45:53 56° SE 17:50:50 10° SSW
Cosmos 1758 4.1 17:42:37 10° NNW 17:46:06 29° W 17:49:36 10° SSW
Cosmos 1805 4.4 17:43:37 10° NNW 17:46:45 23° W 17:48:46 16° WSW
Cosmos 1674 Rocket 3.9 17:43:11 10° SW 17:47:34 67° SE 17:52:00 10° NE
CZ-2C R/B 2.8 17:42:20 10° SE 17:47:59 72° SSW 17:53:38 10° WNW
COBE Rocket 4.2 17:43:08 10° S 17:48:09 48° WSW 17:53:13 10° NNW
PSLV R/B 3.8 17:44:34 10° ENE 17:49:20 80° SSE 17:53:10 15° WSW
Cosmos 1943 Rocket 3.5 17:47:26 15° W 17:49:53 20° SW 17:53:52 10° S
Cosmos-2242 3.1 17:46:04 10° NW 17:50:21 58° SW 17:54:35 10° SSE
Meteor 1-16 Rocket 4.5 17:45:35 10° NW 17:50:32 40° WSW 17:55:28 10° S
ADEOS II 2.6 17:45:21 10° NE 17:50:35 59° SE 17:55:50 10° SSW
USA 81 4.1 17:46:09 15° WSW 17:50:36 76° NNW 17:55:56 10° ENE
Cosmos 1092 Rocket 4.1 17:48:10 15° WSW 17:53:37 89° N 18:00:02 10° E
Cosmos 1908 3.7 17:50:35 10° NW 17:54:13 38° WSW 17:57:49 10° S
DMSP B5D2-2 4.1 17:49:00 10° SE 17:54:18 66° SW 17:59:36 10° NW
Iridium 51 4.4 17:50:01 10° NNW 17:54:24 70° WSW 17:58:24 10° S
Okean 1-7 3.0 17:51:15 15° WSW 17:54:46 81° SSE 17:59:04 10° ENE
Cosmos 1733 4.3 17:51:53 10° NNW 17:55:04 24° W 17:57:58 11° SW
Meteor 2-2 Rocket 4.4 17:50:12 10° WNW 17:56:10 70° SSW 18:02:02 10° SE
Landsat 4 3.7 17:52:40 10° ESE 17:56:29 76° SSW 17:59:32 15° W
Mayak -1.2 17:53:11 10° ESE 17:57:23 86° S 18:01:00 14° W
Cosmos 1782 2.8 17:54:28 16° W 17:57:39 88° SSW 18:01:44 10° E
Thor Agena Rocket 3.6 17:52:39 10° ESE 17:57:58 70° SSW 18:02:59 11° WNW
Meteor 1-27 4.3 17:53:40 10° WNW 17:59:14 66° SW 18:04:52 10° SE
CZ-2D R/B 2.4 17:54:12 10° ENE 17:59:26 68° SE 18:04:40 10° SW
Cosmos 2278 Rocket4.318:03:11SW18:03:11SW17:55:20WNW
Cosmos 1703 Rocket 3.6 17:57:08 15° WSW 18:00:44 83° SSE 18:05:07 10° ENE
CZ-4B R/B 3.1 18:01:58 14° WNW 18:01:58 14° WNW 18:03:39 10° NW
MTI 3.7 18:00:10 10° SE 18:03:17 64° SW 18:06:06 12° WNW
Cosmos 1727 Rocket 4.0 17:57:41 10° NW 18:03:47 61° WSW 18:09:55 10° SSE
Resurs 01 Rocket 4.3 18:01:31 10° N 18:03:58 14° NNE 18:06:26 10° ENE
Nadezhda 3 Rocket 4.2 17:58:04 10° NNW 18:04:10 49° W 18:10:16 10° SSW
MOS 1-B Rocket 4.1 18:00:32 10° ENE 18:06:24 70° SSE 18:12:02 10° WSW
Cosmos 1470 3.7 18:03:22 10° NNW 18:06:44 27° W 18:10:04 10° SW
CZ-4B R/B 3.8 18:01:31 10° ENE 18:06:46 72° SSE 18:11:49 11° WSW
Cosmos 1862 Rocket 3.6 18:04:06 15° W 18:07:42 87° SSE 18:12:05 10° E
Cosmos 405 4.2 18:05:11 10° SSW 18:08:31 41° SE 18:11:51 10° ENE
Cosmos 1400 Rocket 2.9 18:07:39 16° W 18:10:52 72° S 18:14:57 10° E
Cosmos 1709 Rocket 4.4 18:04:48 10° SSW 18:11:07 68° ESE 18:17:30 10° NE
Cosmos 1340 Rocket 3.0 18:07:19 10° WNW 18:11:11 49° SW 18:15:05 10° SSE
Lacrosse 4 Rocket 3.9 18:11:24 10° S 18:12:19 11° S 18:13:14 10° SSE
SKYMED 2 4.2 18:09:14 10° SSW 18:13:15 35° W 18:17:17 10° NNW
JB-3 4.4 18:09:26 10° E 18:13:34 88° SSW 18:17:11 14° WNW
IRS-1D 3.9 18:08:17 10° ENE 18:13:35 67° SE 18:18:47 10° SW
Cosmos 1606 Rocket 4.2 18:10:14 10° NNW 18:14:07 32° W 18:17:59 10° SSW
Cosmos 1689 Rocket 4.1 18:15:01 14° WNW 18:15:01 14° WNW 18:16:21 10° NW
Cosmos 2026 Rocket 4.1 18:10:04 14° WSW 18:15:45 89° NNW 18:22:02 10° E
Cosmos 1447 Rocket 4.5 18:10:48 10° NW 18:17:00 77° SW 18:23:17 10° SE
Okean 3 3.6 18:14:20 11° SW 18:18:30 77° SSE 18:22:51 10° ENE
Okean 2 4.1 18:15:47 10° SSW 18:19:52 57° SE 18:23:58 10° NE
Cosmos 1726 2.9 18:18:08 10° NW 18:21:22 29° W 18:24:35 10° SSW
Meteor 2-20 Rocket 4.5 18:15:50 10° WNW 18:21:57 78° SW 18:28:05 10° SE
IDEFIX/ARIANE 42P 3.4 18:17:14 10° NE 18:22:26 54° ESE 18:27:36 10° SSW
Cosmos 2123 Rocket 4.0 18:16:49 10° NW 18:23:03 69° SW 18:29:14 10° SSE
Cosmos 1455 2.3 18:19:30 10° NW 18:23:16 53° SW 18:27:00 10° SSE
Cosmos 2333 Rocket 4.5 18:19:48 10° S 18:23:55 21° SE 18:28:04 10° E
CZ-2C R/B 3.4 18:21:07 10° NE 18:24:53 56° SE 18:28:35 10° SSW
Cosmos 1707 4.2 18:21:52 10° S 18:25:35 41° ESE 18:29:18 10° NE
Iridium 4 Rocket 3.7 18:22:16 14° W 18:26:31 58° NNW 18:31:52 10° ENE
IRS-P3 4.5 18:22:00 10° ENE 18:27:21 67° SE 18:32:42 10° SW
SME Rocket 3.8 18:22:46 10° ENE 18:28:08 59° SSE 18:32:08 10° SW
Cosmos 1842 4.2 18:24:25 10° SSW 18:28:16 51° ESE 18:32:06 10° NE
Meteor 2-10 Rocket 3.6 18:23:44 10° NW 18:28:41 54° SW 18:33:35 10° SSE
GP-B 3.1 18:24:16 10° S 18:28:45 84° W 18:33:15 10° N
H-2A R/B 3.7 18:26:53 10° NE 18:30:42 43° ESE 18:34:38 10° S
ADEOS Rocket 3.7 18:23:15 10° SSE 18:30:52 62° WSW 18:38:38 10° NW
Cosmos 1315 Rocket 2.9 18:28:16 14° W 18:31:36 72° S 18:35:33 10° E
Meteor 1-29 3.0 18:28:34 10° E 18:32:05 85° S 18:34:57 15° W
Cosmos 1707 Rocket 3.5 18:28:40 14° W 18:32:27 88° S 18:36:51 10° E
CBERS-1 4.3 18:27:36 10° ENE 18:32:45 70° SSE 18:37:54 10° SW
Cosmos 1515 Rocket 3.6 18:29:03 12° WNW 18:33:15 82° SSW 18:37:43 10° ESE
Cosmos 1812 Rocket 4.0 18:29:34 10° NW 18:33:49 42° WSW 18:38:04 10° S
Cosmos 1697 Rocket 4.1 18:29:57 10° WSW 18:34:31 26° S 18:39:04 10° SE
ASTEX 1 3.3 18:32:26 10° S 18:37:21 73° W 18:42:20 10° NNW
CZ-4 R/B 4.3 18:34:07 10° NNE 18:37:33 23° ENE 18:40:58 10° SE
Meteor 1-27 Rocket 3.8 18:32:42 13° W 18:37:46 78° S 18:43:19 10° E
Cosmos 1745 Rocket 4.2 18:31:49 10° SW 18:38:05 78° SE 18:44:26 10° NE
SL-16 R/B 3.9 18:35:35 10° SW 18:40:08 25° SSE 18:44:42 10° ESE
Cosmos 1869 3.3 18:36:12 10° WNW 18:40:13 66° SW 18:44:12 10° SE
Cosmos 1378 Rocket 3.7 18:37:19 10° SW 18:41:45 75° SE 18:46:08 10° ENE
Cosmos 2221 Rocket 3.7 18:37:20 11° WSW 18:41:47 84° SSE 18:46:24 10° ENE
Tsikada Rocket 4.1 18:36:08 10° WNW 18:42:28 84° SSW 18:48:54 10° SE
Meteor 2-20 4.5 18:37:12 10° NW 18:43:18 72° SW 18:49:26 10° SE
Okean 1 3.4 18:41:52 12° WSW 18:45:41 84° SSE 18:49:47 10° ENE
Meteor 1-4 Rocket 4.5 18:43:40 10° S 18:46:49 32° ESE 18:49:57 10° NE
Helios 1B rocket 2.5 18:43:23 10° ESE 18:47:31 79° S 18:51:15 13° W
CZ-2C R/B 4.1 18:43:28 10° S 18:47:42 41° WSW 18:51:57 10° NW
Meteor 2-6 Rocket 4.3 18:42:24 12° W 18:47:45 78° S 18:53:23 10° ESE
Cosmos 1975 Rocket 3.4 18:44:08 10° SW 18:48:34 69° SE 18:52:59 10° NE
Cosmos 2242 Rocket 3.6 18:44:42 13° W 18:48:41 88° S 18:53:10 10° E
deb Chang Zheng 4 4.0 18:44:42 10° ENE 18:49:05 64° SE 18:53:26 10° SW
Terra 4.2 18:47:02 10° NNW 18:49:40 14° NNE 18:52:18 10° NE
Cosmos 2219 Rocket 4.4 18:45:32 10° SSW 18:49:41 22° SE 18:53:52 10° E
Cosmos 2228 Rocket 3.1 18:46:36 12° WNW 18:50:46 82° SSW 18:55:14 10° ESE
Cosmos 1812 2.7 18:47:52 13° W 18:51:15 88° S 18:55:09 10° E
Cosmos 1300 3.3 18:50:01 10° NW 18:53:32 35° WSW 18:57:03 10° S
Cosmos 1842 Rocket 3.8 18:49:23 10° NW 18:53:47 56° WSW 18:58:12 10° SSE
Cosmos 1933 3.4 18:51:00 11° WNW 18:54:54 79° SSW 18:59:02 10° ESE
Cosmos 1726 Rocket 4.4 18:51:13 10° NNW 18:54:57 28° W 18:58:40 10° SW
ALOS 3.8 18:51:25 10° NNE 18:55:52 41° ESE 19:00:19 10° S
USA 116 4.4 18:53:47 10° SSW 18:56:26 22° W 18:58:59 10° NW
Cosmos 2228 3.9 18:52:50 10° NNW 18:56:31 28° W 19:00:10 10° SW
Cosmos 1515 3.8 18:52:55 10° WSW 18:56:47 81° SSE 19:00:39 10° ENE
Cosmos 2369 Rocket 3.7 18:54:36 12° W 18:57:24 17° WSW 19:00:47 10° SSW
PSLV R/B 4.3 18:53:27 10° NE 18:57:44 56° SE 19:01:57 10° SSW
Cosmos 1378 3.8 18:56:58 10° SSW 19:00:41 58° SE 19:04:23 10° NE
Cosmos 1151 Rocket 3.0 18:56:55 10° WNW 19:01:14 74° SW 19:05:36 10° SE
COSMO-SKYMED 1 3.4 18:58:02 10° SSW 19:01:51 29° W 19:05:40 10° NNW
Cosmos 2098 Rocket 4.4 18:54:49 10° SW 19:02:13 81° SE 19:08:39 10° ENE
Resurs 1-4 Rocket 2.3 18:57:00 10° ENE 19:02:22 76° SSE 19:07:43 10° WSW
Cosmos 1356 Rocket 3.6 19:00:05 10° WNW 19:04:00 54° SW 19:08:02 10° SE
CZ-2C R/B 3.4 18:59:00 10° NE 19:04:05 55° ESE 19:09:12 10° SSW
CZ-4B R/B 4.1 19:00:40 10° NE 19:04:54 48° ESE 19:08:58 10° SSW
SAR-Lupe-2 4.4 19:02:05 10° S 19:05:21 31° WSW 19:08:36 10° NW
Okean O Rocket 3.3 19:01:10 10° NE 19:05:22 39° ESE 19:09:33 10° S
Cosmos 389 Rocket 4.2 19:02:36 10° S 19:05:50 36° ESE 19:09:06 10° NE
CZ-2D R/B 3.7 19:02:00 10° ENE 19:06:01 67° SE 19:10:03 10° SW
H-2A R/B 4.0 19:04:06 11° WNW 19:06:18 15° NW 19:08:50 10° N
SL-16 R/B 3.9 19:03:20 11° W 19:07:40 21° NNW 19:12:16 10° NNE
Cosmos 1455 Rocket 4.5 19:04:44 10° NNW 19:07:52 19° NW 19:10:58 10° W
Aureole 2 Rocket 4.4 19:06:31 11° WSW 19:07:53 13° SW 19:09:28 10° SSW
Cosmos 1328 Rocket 3.6 19:03:39 10° WNW 19:08:07 73° SW 19:12:35 10° SE
Cosmos 1606 2.7 19:06:14 11° WNW 19:09:54 77° SSW 19:13:45 10° ESE
Cosmos 2322 Rocket 3.9 19:05:59 10° SW 19:10:30 25° S 19:15:01 10° ESE
Meteor 2-4 Rocket 4.0 19:06:15 10° WSW 19:11:57 75° SSE 19:17:50 10° ENE
Cosmos 2058 Rocket 3.9 19:09:14 10° NNW 19:13:01 29° W 19:16:47 10° SW
NPP 3.9 19:07:50 10° ENE 19:13:17 76° SSE 19:18:43 10° WSW
Cosmos 1953 3.5 19:10:26 10° NNW 19:13:39 23° WNW 19:16:51 10° SW
Meteor 1-10 Rocket 4.4 19:08:24 11° W 19:13:58 77° SSW 19:19:38 10° ESE
Cosmos 2221 2.7 19:10:09 10° NW 19:14:20 53° WSW 19:18:33 10° SSE
ADEOS 4.2 19:10:43 10° NE 19:15:56 59° SE 19:21:08 10° SW
Cosmos 2292 Rocket 3.7 19:12:40 10° WSW 19:16:37 90° W 19:21:55 10° ENE
CZ-4 R/B 3.9 19:12:16 10° ESE 19:17:09 77° SSW 19:21:47 11° W
Cosmos 1025 Rocket 3.6 19:13:18 10° SSW 19:17:33 62° SE 19:21:50 10° NE
AQUA 4.0 19:12:57 10° ENE 19:17:46 78° SSE 19:22:34 10° WSW
EO 1 Del DPAF 3.4 19:16:02 10° SSE 19:19:47 55° SW 19:23:33 10° NW
Cosmos 2360 Rocket 4.0 19:16:19 10° SW 19:20:51 25° SSE 19:25:24 10° ESE
Cosmos 1655 Rocket 4.1 19:17:19 10° W 19:23:46 88° N 19:30:15 10° E
Meteor 1-26 Rocket 4.5 19:18:00 10° WNW 19:23:57 73° SSW 19:29:57 10° SE
Cosmos 1626 4.3 19:20:42 10° SSE 19:24:03 32° E 19:27:25 10° NE
MOS 1 Rocket 3.3 19:19:38 10° SE 19:24:21 64° SW 19:28:49 10° NW
Cosmos 1980 Rocket 3.7 19:20:28 10° WSW 19:25:01 25° SSW 19:29:36 10° SE
Cosmos 1674 Rocket 3.7 19:20:57 10° WSW 19:25:23 84° SSE 19:29:52 10° ENE
ARIANE 5 R/B 2.8 19:20:28 10° ENE 19:25:32 72° SSE 19:30:34 10° WSW
PSLV R/B 3.8 19:21:31 10° E 19:26:17 84° S 19:30:56 10° W
Cosmos-2242 3.5 19:23:29 10° NW 19:27:32 39° WSW 19:31:32 10° S
Nadezhda 4 Rocket 4.1 19:21:41 10° WNW 19:27:56 89° SSW 19:34:17 10° ESE
CZ-2C R/B 3.0 19:23:18 10° SSE 19:28:52 56° WSW 19:34:25 10° NW
Cosmos 1908 4.3 19:26:13 10° NNW 19:29:25 25° W 19:32:36 10° SW
Cosmos 2266 Rocket 4.1 19:23:48 10° W 19:30:02 88° N 19:36:23 10° E
Landsat 4 3.9 19:26:59 10° SE 19:30:46 62° SW 19:34:31 10° WNW
ADEOS II 2.4 19:25:31 10° ENE 19:30:49 74° SSE 19:36:07 10° WSW
IRS-1C 4.4 19:25:43 10° ENE 19:31:06 73° SSE 19:36:29 10° WSW
Cosmos 1943 Rocket 3.8 19:28:57 10° WNW 19:31:50 15° WSW 19:34:47 10° SW
USA 81 4.2 19:26:49 10° W 19:32:08 70° N 19:37:27 10° E
Okean 1-7 3.0 19:28:07 10° W 19:32:26 88° SSW 19:36:44 10° E
Mayak -1.2 19:29:02 10° SE 19:33:13 72° SW 19:37:26 10° WNW
Cosmos 1782 2.9 19:30:05 11° WNW 19:34:03 79° SSW 19:38:07 10° ESE
DMSP B5D2-2 4.4 19:29:30 10° S 19:34:40 49° WSW 19:39:49 10° NW
Meteor 1-31 Rocket 3.7 19:30:53 10° NE 19:34:41 53° SE 19:38:28 10° SSW
MTI 4.2 19:32:31 10° SSE 19:35:31 41° WSW 19:38:32 10° NW
Meteor 1-23 Rocket 4.5 19:30:19 10° WSW 19:35:53 73° SSE 19:41:30 10° ENE
Thor Agena Rocket 3.8 19:32:36 10° SSE 19:37:50 57° SW 19:43:01 10° NW
Cosmos 1703 Rocket 3.6 19:34:20 10° W 19:38:42 88° S 19:43:07 10° E
Cosmos 1092 Rocket 4.1 19:32:52 10° WNW 19:39:14 90° ENE 19:45:38 10° ESE
Cosmos 1536 Rocket 3.9 19:35:32 10° SW 19:39:52 69° SE 19:44:15 10° ENE
CZ-2D R/B 2.2 19:34:40 10° E 19:39:55 78° S 19:45:12 10° WSW
Cosmos 1470 4.2 19:39:08 10° NNW 19:41:51 18° WNW 19:44:34 10° WSW
Resurs 01 Rocket 4.2 19:38:56 10° NNE 19:42:09 19° ENE 19:45:22 10° ESE
Cosmos 405 3.5 19:39:30 10° SW 19:42:57 59° SSE 19:46:25 10° ENE
ASTRO F (AKARI) 4.4 19:40:25 10° E 19:43:33 72° SSE 19:46:42 10° WSW
USA 32 4.1 19:38:56 10° SW 19:44:14 89° SE 19:49:33 10° NE
Cosmos 1862 Rocket 3.6 19:41:15 10° WNW 19:45:40 85° SSW 19:50:03 10° ESE
CZ-4B R/B 3.7 19:40:35 10° E 19:45:51 77° S 19:51:11 10° W
Cosmos 1340 Rocket 3.6 19:43:35 10° NW 19:47:12 33° WSW 19:50:49 10° S
Cosmos 1400 Rocket 3.1 19:43:17 10° WNW 19:47:15 63° SSW 19:51:19 10° SE
Cosmos 1727 Rocket 4.3 19:42:53 10° NNW 19:48:41 44° W 19:54:31 10° SSW
JB-3 4.5 19:44:35 10° SE 19:48:42 74° SW 19:52:53 10° WNW
Spot 4 Rocket 4.3 19:44:08 10° ENE 19:49:19 73° SSE 19:54:30 10° WSW
Lacrosse 4 Rocket 3.9 19:48:53 10° SSW 19:49:26 10° SSW 19:49:59 10° S
Cosmos 1484 Rocket 3.7 19:47:40 10° NE 19:51:20 51° ESE 19:55:02 10° SSW
Cosmos 2154 Rocket 4.4 19:45:16 10° SSW 19:51:28 71° SE 19:57:42 10° NE
PAYLOAD A 4.5 19:47:25 10° NE 19:52:06 61° SE 19:56:53 10° SW
IRS-1D 3.8 19:47:55 10° E 19:53:16 78° SSE 19:58:30 10° WSW
Cosmos 1726 3.5 19:53:09 10° NNW 19:55:48 19° WNW 19:58:27 10° WSW
Okean 3 3.6 19:51:27 10° W 19:55:49 88° S 20:00:10 10° E
MOS 1-B Rocket 4.0 19:50:03 10° E 19:55:59 76° S 20:01:37 10° W
Cosmos 1709 Rocket 4.2 19:50:04 10° SW 19:56:28 84° SSE 20:02:54 10° ENE
Okean 2 3.6 19:52:25 10° SW 19:56:35 77° SSE 20:00:46 10° ENE
Cosmos 1455 2.9 19:54:59 10° NW 19:58:30 34° WSW 20:01:59 10° SSW
Cosmos 1892 Rocket 4.3 19:54:50 10° SSW 19:59:10 58° SE 20:03:28 10° NE
CZ-2C R/B 2.9 19:55:51 10° ENE 19:59:40 76° SSE 20:03:26 10° WSW
Cosmos 2184 Rocket 4.3 19:54:50 10° SW 20:01:08 77° SE 20:07:32 10° NE
Cosmos 1707 3.4 19:57:16 10° SW 20:01:10 62° SE 20:05:04 10° NE
Cosmos 2026 Rocket 4.1 19:54:54 10° WNW 20:01:16 90° S 20:07:31 10° ESE
IDEFIX/ARIANE 42P 3.0 19:57:19 10° ENE 20:02:38 70° SE 20:07:55 10° SW
Cosmos 1842 3.6 20:00:10 10° SW 20:04:07 73° SE 20:08:03 10° ENE
Meteor 1-29 3.1 20:01:30 10° ESE 20:05:00 76° SSW 20:08:31 10° WNW
GP-B 3.2 20:02:03 10° SW 20:06:27 56° WNW 20:10:52 10° NNE
Cosmos 2333 Rocket 4.3 20:02:11 10° SW 20:06:43 25° SSE 20:11:16 10° ESE
H-2A R/B 3.0 20:02:48 10° ENE 20:06:44 61° SE 20:10:49 10° SW
Iridium 4 Rocket 3.9 20:02:17 10° WNW 20:07:11 55° N 20:12:32 10° E
IRS-P3 4.3 20:02:25 10° E 20:07:48 76° S 20:13:10 10° WSW
Cosmos 2123 Rocket 4.2 20:02:04 10° NNW 20:08:05 51° W 20:14:04 10° S
Cosmos 1315 Rocket 3.0 20:04:07 10° WNW 20:08:05 64° SSW 20:12:01 10° ESE
Meteor 2-10 Rocket 4.0 20:05:31 10° NW 20:10:11 38° WSW 20:14:48 10° SSW
Cosmos 1707 Rocket 3.6 20:06:00 10° WNW 20:10:22 77° SSW 20:14:46 10° SE
Cosmos 1812 Rocket 4.5 20:07:10 10° NNW 20:11:01 28° W 20:14:52 10° SW
Cosmos 1515 Rocket 3.8 20:06:37 10° NW 20:11:03 64° SW 20:15:28 10° SSE
CBERS-1 4.2 20:07:07 10° E 20:12:17 78° S 20:17:28 10° W
CZ-4 R/B 3.5 20:09:44 10° NNE 20:13:38 34° E 20:17:31 10° SSE
Cosmos 1869 3.8 20:12:22 10° NW 20:16:14 45° WSW 20:20:04 10° S
Cosmos 2341 Rocket 4.4 20:10:08 10° SSW 20:16:19 70° SE 20:22:31 10° NE
ASTEX 1 3.6 20:12:09 10° SSW 20:16:57 49° WNW 20:21:46 10° N
Cosmos 1697 Rocket 4.3 20:12:48 10° W 20:17:05 23° SW 20:21:22 10° SSE
ADEOS Rocket 3.9 20:10:07 10° SSW 20:17:30 48° W 20:25:02 10° NNW
Cosmos 1378 Rocket 3.6 20:15:07 10° W 20:19:34 87° S 20:23:59 10° E
Cosmos 2221 Rocket 3.7 20:15:30 10° W 20:20:05 88° S 20:24:43 10° E
Meteor 1-27 Rocket 3.8 20:15:33 10° WNW 20:21:04 73° SSW 20:26:37 10° ESE
Meteor 1-4 Rocket 3.6 20:18:05 10° SSW 20:21:28 48° SE 20:24:50 10° ENE
Okean 1 3.4 20:18:04 10° W 20:22:10 87° S 20:26:16 10° E
SL-16 R/B 3.9 20:18:20 10° WSW 20:22:54 25° SSW 20:27:28 10° SE
Helios 1B rocket 2.6 20:18:59 10° SE 20:23:06 67° SSW 20:27:14 10° WNW
MSX 4.3 20:17:31 10° ENE 20:23:17 69° SE 20:29:02 10° SW
Cosmos 1745 Rocket 4.1 20:17:16 10° WSW 20:23:35 90° W 20:29:59 10° ENE
deb Chang Zheng 4 3.8 20:21:02 10° E 20:25:26 76° S 20:29:50 10° WSW
SME Rocket 3.8 20:19:48 10° E 20:25:28 66° S 20:29:36 10° W
H-2A R/B 4.3 20:22:17 10° NE 20:26:06 44° ESE 20:29:53 10° S
Cosmos 1975 Rocket 3.2 20:21:59 10° WSW 20:26:27 85° SSE 20:30:52 10° ENE
Cosmos 1674 3.6 20:23:18 10° SSW 20:26:59 54° SE 20:30:40 10° NE
Cosmos 2242 Rocket 3.7 20:22:33 10° WNW 20:27:00 82° SSW 20:31:28 10° ESE
Cosmos 1812 2.8 20:23:14 10° WNW 20:27:07 79° SSW 20:31:00 10° ESE
Tsikada Rocket 4.2 20:21:44 10° NW 20:28:00 68° WSW 20:34:21 10° SSE
Cosmos 1300 3.9 20:25:27 10° NNW 20:28:30 23° W 20:31:33 10° SW
Cosmos 2228 Rocket 3.3 20:24:32 10° NW 20:28:56 63° SW 20:33:20 10° SSE
Okean 1-7 Rocket 4.2 20:24:47 10° SW 20:29:17 66° SE 20:33:49 10° NE
Terra 4.1 20:26:01 10° N 20:29:18 18° NE 20:32:34 10° E
H-2A R/B 4.1 20:24:48 10° NNE 20:29:37 31° ENE 20:34:27 10° SE
Spot 2 4.4 20:25:57 10° ENE 20:30:08 66° SSE 20:34:13 10° WSW
Meteor 2-6 Rocket 4.4 20:25:05 10° WNW 20:30:50 69° SSW 20:36:24 10° SE
Cosmos 1842 Rocket 4.2 20:27:05 10° NNW 20:31:15 38° W 20:35:25 10° SSW
Cosmos 1933 3.6 20:27:17 10° NW 20:31:21 59° SW 20:35:25 10° SSE
Cosmos 2219 Rocket 4.2 20:27:45 10° SW 20:32:14 25° S 20:36:43 10° ESE
Cosmos 1515 3.7 20:28:37 10° W 20:32:30 88° S 20:36:22 10° E
Cosmos 2228 4.3 20:30:00 10° NNW 20:33:03 19° WNW 20:36:06 10° WSW
Cosmos 2074 Rocket 4.2 20:27:20 10° SW 20:33:36 82° SE 20:39:51 10° ENE
ALOS 3.1 20:29:22 10° NE 20:34:01 58° SE 20:38:39 10° SSW
PSLV R/B 3.8 20:29:45 10° ENE 20:34:05 75° SSE 20:38:23 10° WSW
Cosmos 1626 Rocket 4.4 20:31:41 10° SSW 20:35:57 56° SE 20:40:14 10° NE
Cosmos 1378 3.3 20:32:11 10° WSW 20:35:57 79° SSE 20:39:43 10° ENE
Cosmos 1151 Rocket 3.3 20:34:25 10° NW 20:38:39 53° WSW 20:42:54 10° SSE
COSMO-SKYMED 1 3.9 20:36:04 10° WSW 20:39:18 20° WNW 20:42:32 10° NNW
Cosmos 2369 Rocket 4.0 20:37:47 10° WNW 20:39:24 11° W 20:41:02 10° WSW
Cosmos 389 Rocket 3.4 20:36:50 10° SW 20:40:15 54° SE 20:43:42 10° ENE
CZ-4B R/B 3.5 20:36:08 10° ENE 20:40:30 68° SE 20:44:41 10° SW
Cosmos 1356 Rocket 4.1 20:36:51 10° NW 20:40:38 37° WSW 20:44:27 10° S
CZ-2D R/B 3.5 20:37:55 10° E 20:41:56 82° SSE 20:46:00 10° WSW
Cosmos 2237 Rocket 4.5 20:37:49 10° SSW 20:42:20 25° SSE 20:46:52 10° ESE
Okean O Rocket 2.5 20:38:00 10° NE 20:42:26 56° SE 20:46:49 10° SSW
Resurs 1-4 Rocket 2.3 20:37:12 10° E 20:42:33 79° S 20:47:56 10° W
CZ-2C R/B 2.9 20:37:41 10° ENE 20:42:51 71° SE 20:48:05 10° SW
PSLV R/B 4.4 20:39:32 10° NE 20:43:20 61° SE 20:47:05 10° SW
SL-14 R/B 4.4 20:39:34 10° SSW 20:43:21 49° ESE 20:47:07 10° NE
Cosmos 2098 Rocket 4.3 20:36:14 10° WSW 20:43:37 89° NNW 20:49:57 10° ENE
H-2A R/B 4.2 20:42:22 10° NW 20:44:12 12° NNW 20:46:02 10° N
CZ-4B R/B 4.1 20:38:53 10° NE 20:44:14 55° SE 20:49:29 10° SSW
Envisat 4.4 20:40:12 10° NE 20:45:07 45° ESE 20:50:02 10° S
Cosmos 1606 3.0 20:41:44 10° NW 20:45:32 56° SW 20:49:18 10° SSE
Cosmos 1328 Rocket 3.9 20:41:21 10° NW 20:45:43 52° WSW 20:50:03 10° SSE
SL-8 Rocket 4.4 20:40:56 10° SSW 20:47:06 72° SE 20:53:15 10° NE
